GW2998 Weather Reports


time (UTC)temp
C
wind
direction
speed
KPH
gust
KPH
rain 1hr
cm
rain 24hr
cm
rain mn
cm
humidity
%
barometer
mb
20260506114428 16 99 1.6 3.2 0.00 0.00 0.00 78 1009.8
20260506113927 16 81 4.8 4.8 0.00 0.00 0.00 81 1009.8
20260506113424 16 171 0.0 4.8 0.00 0.00 0.00 81 1010.0
20260506112915 16 127 0.0 3.2 0.00 0.00 0.00 79 1009.6
20260506112413 16 75 0.0 3.2 0.00 0.00 0.00 79 1009.6
20260506111910 16 166 1.6 6.4 0.00 0.00 0.00 78 1009.7
20260506111408 16 37 0.0 4.8 0.00 0.00 0.00 80 1009.5
20260506110905 16 55 0.0 4.8 0.00 0.00 0.00 81 1009.5
20260506110402 16 100 4.8 4.8 0.00 0.00 0.00 81 1009.6
20260506105859 15 39 0.0 3.2 0.00 0.00 0.00 83 1009.7
20260506105355 15 178 3.2 6.4 0.00 0.00 0.00 86 1009.5
20260506104853 15 127 0.0 3.2 0.00 0.00 0.00 88 1009.5
20260506104350 15 112 3.2 3.2 0.00 0.00 0.00 86 1009.3
20260506103848 14 134 0.0 3.2 0.00 0.00 0.00 87 1009.4
20260506103345 14 88 3.2 4.8 0.00 0.00 0.00 88 1009.1
20260506102842 13 39 0.0 3.2 0.00 0.00 0.00 90 1009.0
20260506102340 13 76 0.0 1.6 0.00 0.00 0.00 89 1009.2
20260506101837 13 75 0.0 4.8 0.00 0.00 0.00 88 1009.1
20260506101333 13 53 1.6 3.2 0.00 0.00 0.00 88 1009.4
20260506100831 13 49 1.6 4.8 0.00 0.00 0.00 87 1008.9
20260506100329 13 44 0.0 3.2 0.00 0.00 0.00 88 1009.3
20260506095827 13 349 0.0 4.8 0.00 0.00 0.00 87 1009.3
20260506095324 13 60 0.0 3.2 0.00 0.00 0.00 87 1009.3
20260506094821 13 67 3.2 3.2 0.00 0.00 0.00 87 1009.3
20260506094320 13 51 1.6 3.2 0.00 0.00 0.00 87 1009.4
20260506093818 13 75 1.6 3.2 0.00 0.00 0.00 86 1009.4
20260506093314 13 79 1.6 3.2 0.00 0.00 0.00 87 1009.2
20260506092812 13 71 3.2 3.2 0.00 0.00 0.00 88 1009.4
20260506092310 13 70 1.6 3.2 0.00 0.00 0.00 88 1009.2
20260506091807 13 44 0.0 3.2 0.00 0.00 0.00 89 1009.2
20260506091304 13 52 0.0 3.2 0.00 0.00 0.00 88 1009.4
20260506090802 13 354 1.6 3.2 0.00 0.00 0.00 89 1009.5
20260506090259 12 49 3.2 4.8 0.00 0.00 0.00 90 1009.3
20260506085755 12 89 1.6 3.2 0.00 0.00 0.00 91 1009.6
20260506085252 12 48 3.2 4.8 0.00 0.00 0.00 90 1009.6
20260506084748 12 42 1.6 3.2 0.00 0.00 0.00 91 1009.6
20260506084245 12 25 0.0 1.6 0.00 0.00 0.00 91 1009.5
20260506083742 12 78 0.0 3.2 0.00 0.00 0.00 90 1009.7
20260506083240 12 73 0.0 3.2 0.00 0.00 0.00 90 1010.0
20260506082737 12 80 3.2 4.8 0.00 0.00 0.00 90 1010.1
20260506082232 12 115 0.0 3.2 0.00 0.00 0.00 90 1009.7
20260506081730 12 58 1.6 3.2 0.00 0.00 0.00 90 1009.5
20260506081227 12 44 0.0 3.2 0.00 0.00 0.00 91 1009.7
20260506080726 12 47 1.6 3.2 0.00 0.00 0.00 91 1009.8
20260506080221 12 39 3.2 3.2 0.00 0.00 0.00 91 1009.4
20260506073206 12 68 0.0 3.2 0.00 0.00 0.00 91 1009.7
20260506072702 12 66 0.0 3.2 0.00 0.00 0.00 91 1009.7
20260506072200 12 62 1.6 3.2 0.00 0.00 0.00 91 1010.0
20260506071657 12 111 1.6 3.2 0.00 0.00 0.00 91 1009.8
20260506071155 12 42 0.0 3.2 0.00 0.00 0.00 91 1009.8
20260506070652 12 80 1.6 3.2 0.00 0.00 0.00 91 1009.8
20260506070148 12 44 0.0 3.2 0.00 0.00 0.00 91 1010.0
20260506062126 11 51 3.2 4.8 0.00 0.00 0.00 92 1010.3
20260506061621 11 353 0.0 3.2 0.00 0.00 0.00 92 1010.3
20260506061120 11 53 1.6 3.2 0.00 0.00 0.00 92 1010.3
20260506060618 11 44 1.6 1.6 0.00 0.00 0.00 92 1010.3
20260506060114 11 75 0.0 1.6 0.00 0.00 0.00 92 1010.4
20260506051046 12 54 3.2 4.8 0.00 0.00 0.00 91 1010.8
20260506050544 12 112 1.6 3.2 0.00 0.00 0.00 91 1010.9
20260506045035 12 65 0.0 3.2 0.00 0.00 0.00 90 1010.9
20260506044533 12 41 1.6 3.2 0.00 0.00 0.00 89 1010.8
20260506044029 12 28 0.0 3.2 0.00 0.00 0.00 89 1010.8
20260506043526 12 50 1.6 1.6 0.00 0.00 0.00 89 1010.8
20260506043025 12 48 1.6 3.2 0.00 0.00 0.00 89 1010.9
20260506042523 12 37 0.0 3.2 0.00 0.00 0.00 88 1010.9
20260506042021 12 47 1.6 3.2 0.00 0.00 0.00 89 1010.9
20260506041520 13 44 0.0 3.2 0.00 0.00 0.00 88 1011.1
20260506041016 13 33 0.0 3.2 0.00 0.00 0.00 88 1010.9
20260506040514 13 32 0.0 3.2 0.00 0.00 0.00 87 1011.0
20260506040009 13 62 0.0 3.2 0.00 0.18 0.18 87 1011.1
20260506035507 13 50 0.0 1.6 0.00 0.18 0.18 87 1010.8
20260506035003 13 50 0.0 3.2 0.00 0.18 0.18 87 1011.0
20260506034501 13 44 1.6 3.2 0.00 0.18 0.18 86 1011.1
20260506033957 13 62 0.0 1.6 0.00 0.18 0.18 85 1011.1
20260506033455 13 45 0.0 3.2 0.00 0.18 0.18 85 1011.1
20260506032951 13 15 0.0 1.6 0.00 0.18 0.18 85 1010.9
20260506032449 14 55 0.0 3.2 0.00 0.18 0.18 84 1010.9
20260506031945 14 330 0.0 1.6 0.00 0.18 0.18 84 1010.9
20260506031443 14 62 0.0 3.2 0.00 0.18 0.18 83 1010.9
20260506030940 14 55 0.0 3.2 0.00 0.18 0.18 83 1011.1
20260506030438 15 50 0.0 1.6 0.00 0.18 0.18 83 1010.8
20260506025935 15 50 0.0 1.6 0.00 0.18 0.18 82 1010.9
20260506025432 15 62 0.0 1.6 0.00 0.18 0.18 81 1010.9
20260506024928 15 50 0.0 3.2 0.00 0.18 0.18 79 1010.9
20260506024425 15 49 0.0 1.6 0.00 0.18 0.18 79 1010.8
20260506023921 15 32 0.0 1.6 0.00 0.18 0.18 79 1010.7
20260506023418 16 39 1.6 1.6 0.00 0.18 0.18 76 1010.8
20260506022915 16 37 0.0 1.6 0.00 0.18 0.18 76 1010.9
20260506022413 16 69 0.0 0.0 0.00 0.18 0.18 76 1010.9
20260506021910 16 66 0.0 0.0 0.00 0.18 0.18 78 1010.8
20260506021407 16 75 1.6 3.2 0.00 0.18 0.18 76 1010.9
20260506020904 16 13 0.0 1.6 0.00 0.18 0.18 75 1011.0
20260506020402 17 50 0.0 1.6 0.00 0.18 0.18 75 1010.9
20260506015859 17 37 0.0 1.6 0.00 0.18 0.18 73 1011.0
20260506015356 17 103 0.0 1.6 0.00 0.18 0.18 72 1010.8
20260506014853 17 22 0.0 0.0 0.00 0.18 0.18 71 1010.8
20260506014350 17 89 0.0 0.0 0.00 0.18 0.18 70 1010.9
20260506013847 17 80 0.0 0.0 0.00 0.18 0.18 70 1010.8
20260506013344 18 135 0.0 1.6 0.00 0.18 0.18 70 1010.7
20260506012840 17 205 0.0 1.6 0.00 0.18 0.18 67 1010.8
20260506012338 18 50 0.0 0.0 0.00 0.18 0.18 68 1010.8
20260506011835 18 37 0.0 1.6 0.00 0.18 0.18 68 1010.5
20260506011331 18 158 0.0 1.6 0.00 0.18 0.18 65 1010.5
20260506010829 18 44 0.0 0.0 0.00 0.18 0.18 65 1010.3
20260506010327 18 50 0.0 0.0 0.00 0.18 0.18 64 1010.4
20260506005823 18 50 0.0 1.6 0.00 0.18 0.18 63 1010.3
20260506005320 18 37 0.0 0.0 0.00 0.18 0.18 61 1010.0
20260506004816 19 37 0.0 0.0 0.00 0.18 0.18 62 1010.1
20260506004314 19 37 0.0 1.6 0.00 0.18 0.18 63 1010.0
20260506003810 20 172 0.0 0.0 0.00 0.18 0.18 63 1010.0
20260506003306 20 44 0.0 0.0 0.00 0.18 0.18 63 1009.8
20260506002802 20 44 0.0 1.6 0.00 0.18 0.18 64 1010.0
20260506002259 20 217 0.0 0.0 0.00 0.18 0.18 59 1009.7
20260506001755 21 89 0.0 3.2 0.00 0.18 0.18 54 1009.8
20260506001252 21 309 0.0 1.6 0.00 0.18 0.18 60 1009.6
20260506000749 21 148 0.0 3.2 0.00 0.18 0.18 56 1009.6
20260506000247 21 22 0.0 3.2 0.00 0.18 0.18 55 1009.7
20260505235743 21 22 0.0 3.2 0.00 0.18 0.18 56 1009.6
20260505235241 21 172 0.0 0.0 0.00 0.18 0.18 56 1009.6
20260505234738 21 309 0.0 1.6 0.00 0.18 0.18 58 1009.7
20260505234235 21 317 1.6 3.2 0.00 0.18 0.18 56 1009.4
20260505233732 21 195 0.0 1.6 0.00 0.18 0.18 54 1009.4
20260505233230 21 13 0.0 3.2 0.00 0.18 0.18 58 1009.4
20260505232727 22 154 0.0 1.6 0.00 0.18 0.18 51 1009.4
20260505232224 22 197 0.0 3.2 0.00 0.18 0.18 53 1009.3
20260505231721 22 55 0.0 3.2 0.00 0.18 0.18 55 1009.3
20260505231220 22 315 0.0 3.2 0.00 0.18 0.18 55 1009.1
20260505230717 22 106 3.2 4.8 0.00 0.18 0.18 49 1009.2
20260505230214 21 190 0.0 3.2 0.00 0.18 0.18 56 1009.3
20260505225710 21 77 3.2 4.8 0.00 0.18 0.18 57 1009.3
20260505225207 21 158 3.2 6.4 0.00 0.18 0.18 55 1009.2
20260505224703 21 121 3.2 4.8 0.00 0.18 0.18 57 1009.2
20260505224201 21 77 3.2 3.2 0.00 0.18 0.18 61 1009.2
20260505223658 20 140 0.0 3.2 0.00 0.18 0.18 68 1009.0
20260505223154 20 82 1.6 3.2 0.00 0.18 0.18 73 1009.1
20260505222650 20 271 0.0 3.2 0.00 0.18 0.18 76 1008.8
20260505222147 20 154 0.0 1.6 0.00 0.18 0.18 75 1009.0
20260505221644 20 89 0.0 1.6 0.00 0.18 0.18 73 1008.9
20260505221140 20 37 0.0 1.6 0.00 0.18 0.18 77 1009.0
20260505220637 20 62 0.0 3.2 0.00 0.18 0.18 78 1009.1
20260505220135 20 37 0.0 1.6 0.00 0.18 0.18 84 1008.8
20260505215632 19 127 0.0 3.2 0.00 0.18 0.18 86 1009.0
20260505215130 19 119 0.0 3.2 0.00 0.18 0.18 87 1008.8
20260505214628 20 29 0.0 3.2 0.00 0.18 0.18 88 1009.1
20260505214125 19 100 3.2 4.8 0.00 0.18 0.18 87 1009.0
20260505213623 19 117 0.0 3.2 0.00 0.18 0.18 86 1009.1
20260505213119 20 172 0.0 3.2 0.00 0.18 0.18 86 1009.0
20260505212615 20 22 0.0 3.2 0.00 0.18 0.18 85 1009.0
20260505212113 20 119 0.0 3.2 0.00 0.18 0.18 83 1009.0
20260505211610 20 152 0.0 1.6 0.00 0.18 0.18 83 1009.0
20260505211107 20 117 0.0 3.2 0.00 0.18 0.18 82 1008.9
20260505210603 20 117 0.0 1.6 0.00 0.18 0.18 77 1008.8
20260505210100 20 117 0.0 1.6 0.00 0.18 0.18 76 1008.9
20260505205558 20 344 1.6 3.2 0.13 0.18 0.18 70 1008.8
20260505205055 21 72 4.8 12.9 0.18 0.18 0.18 68 1008.9
20260505204552 23 172 8.0 14.5 0.00 0.15 0.15 51 1009.5
20260505204050 24 153 6.4 16.1 0.00 0.15 0.15 40 1008.9
20260505203546 25 161 1.6 22.5 0.00 0.15 0.15 40 1008.5
20260505203044 25 98 4.8 8.0 0.00 0.15 0.15 40 1008.2
20260505202539 25 197 1.6 9.7 0.00 0.15 0.15 39 1008.4
20260505202035 25 113 0.0 4.8 0.00 0.15 0.15 38 1008.4
20260505201533 25 249 3.2 9.7 0.00 0.15 0.15 37 1008.3
20260505201030 26 197 8.0 19.3 0.00 0.15 0.15 36 1008.3
20260505200528 26 215 6.4 11.3 0.00 0.15 0.15 37 1008.3
20260505200025 27 152 8.0 16.1 0.00 0.15 0.15 33 1008.3
20260505195520 27 17 0.0 9.7 0.00 0.15 0.15 38 1008.3
20260505195018 27 95 4.8 9.7 0.00 0.15 0.15 37 1008.4
20260505194515 26 75 3.2 14.5 0.00 0.15 0.15 36 1008.5
20260505194010 26 12 3.2 14.5 0.00 0.15 0.15 36 1008.3
20260505193508 27 155 6.4 17.7 0.00 0.15 0.15 35 1008.3
20260505193005 27 164 6.4 20.9 0.00 0.15 0.15 35 1008.3
20260505192504 27 93 8.0 12.9 0.00 0.15 0.15 37 1008.4
20260505192001 26 195 8.0 9.7 0.00 0.15 0.15 37 1008.5
20260505191459 27 258 6.4 20.9 0.00 0.15 0.15 35 1008.7
20260505190956 27 180 6.4 17.7 0.00 0.15 0.15 33 1008.5
20260505190451 27 238 4.8 11.3 0.00 0.15 0.15 35 1008.6
20260505185947 27 184 4.8 16.1 0.00 0.15 0.15 33 1008.9
20260505185444 27 196 4.8 22.5 0.00 0.15 0.15 34 1008.9
20260505184940 27 103 3.2 19.3 0.00 0.15 0.15 39 1009.1
20260505184437 27 104 4.8 12.9 0.00 0.15 0.15 36 1009.3
20260505183933 27 204 3.2 12.9 0.00 0.15 0.15 37 1009.2
20260505183431 27 205 4.8 17.7 0.00 0.15 0.15 34 1009.5
20260505182927 26 122 4.8 17.7 0.00 0.15 0.15 35 1009.2
20260505182425 26 49 4.8 22.5 0.00 0.15 0.15 37 1009.5
20260505181920 27 344 8.0 22.5 0.00 0.15 0.15 35 1009.4
20260505181418 27 214 6.4 16.1 0.00 0.15 0.15 36 1009.6
20260505180915 27 205 8.0 8.0 0.00 0.15 0.15 38 1009.6
20260505180411 27 165 6.4 14.5 0.00 0.15 0.15 39 1009.5
20260505175908 27 136 3.2 12.9 0.00 0.15 0.15 38 1009.6
20260505175404 26 98 3.2 11.3 0.00 0.15 0.15 40 1009.8
20260505174901 27 184 6.4 11.3 0.00 0.15 0.15 39 1009.8
20260505174358 27 336 6.4 11.3 0.00 0.15 0.15 39 1009.8
20260505173854 26 166 8.0 20.9 0.00 0.15 0.15 39 1010.1
20260505173351 26 231 6.4 16.1 0.00 0.15 0.15 41 1009.8
20260505172848 26 134 4.8 9.7 0.00 0.15 0.15 42 1009.6
20260505172346 26 19 1.6 14.5 0.00 0.15 0.15 41 1009.8
20260505171845 26 148 24.1 24.1 0.00 0.15 0.15 39 1010.0
20260505171342 26 145 8.0 17.7 0.00 0.15 0.15 39 1010.1
20260505170838 26 74 3.2 12.9 0.00 0.15 0.15 43 1010.0
20260505170336 26 223 4.8 32.2 0.00 0.15 0.15 42 1010.1
20260505165831 26 93 8.0 20.9 0.00 0.15 0.15 45 1010.0
20260505165327 26 157 6.4 9.7 0.00 0.15 0.15 44 1010.0
20260505164822 26 299 3.2 17.7 0.00 0.15 0.15 43 1010.2
20260505164320 26 350 3.2 11.3 0.00 0.15 0.15 43 1010.2
20260505163818 26 167 16.1 20.9 0.00 0.15 0.15 41 1010.3
20260505163316 25 154 11.3 17.7 0.00 0.15 0.15 43 1010.5
20260505162814 26 147 4.8 6.4 0.00 0.15 0.15 45 1010.5
20260505162310 25 166 4.8 12.9 0.00 0.15 0.15 42 1010.3
20260505161807 26 195 4.8 14.5 0.00 0.15 0.15 46 1010.5
20260505161305 26 98 3.2 14.5 0.00 0.15 0.15 43 1010.5
20260505160802 25 171 6.4 12.9 0.00 0.15 0.15 44 1010.6
20260505160300 25 184 3.2 11.3 0.00 0.15 0.15 45 1010.7
20260505153238 25 77 3.2 12.9 0.00 0.15 0.15 50 1010.9
20260505152735 25 167 6.4 9.7 0.00 0.15 0.15 45 1011.0
20260505152231 24 122 1.6 24.1 0.00 0.15 0.15 46 1011.0
20260505151726 24 208 4.8 8.0 0.00 0.15 0.15 48 1010.9
20260505151224 24 83 8.0 12.9 0.00 0.15 0.15 50 1011.0
20260505150720 23 192 8.0 14.5 0.00 0.15 0.15 48 1010.9
20260505150217 23 152 6.4 20.9 0.00 0.15 0.15 47 1011.1
20260505140645 21 78 1.6 12.9 0.00 0.15 0.15 58 1011.4
20260505140142 21 184 3.2 14.5 0.00 0.15 0.15 54 1011.5
20260505130106 18 127 3.2 9.7 0.00 0.15 0.15 67 1011.8
20260505124555 17 200 0.0 8.0 0.00 0.15 0.15 73 1011.8
20260505124052 17 172 3.2 6.4 0.00 0.15 0.15 75 1011.8
20260505123548 17 183 4.8 11.3 0.00 0.15 0.15 75 1011.8
20260505123044 16 125 3.2 4.8 0.00 0.15 0.15 83 1011.6
20260505122541 15 89 0.0 4.8 0.00 0.15 0.15 92 1011.8
20260505122039 15 96 0.0 8.0 0.00 0.15 0.15 98 1011.8
20260505121535 15 83 0.0 1.6 0.00 0.15 0.15 98 1011.8
20260505121032 15 160 0.0 3.2 0.00 0.15 0.15 99 1012.0
20260505120528 13 144 1.6 3.2 0.00 0.15 0.15 99 1011.9
20260505120024 13 72 0.0 3.2 0.00 0.15 0.15 99 1011.7
20260505115518 13 95 1.6 3.2 0.00 0.15 0.15 99 1012.0
20260505115017 13 73 3.2 3.2 0.00 0.15 0.15 99 1011.9